This is the latest recevied weather packets stored in our database for station/object K5KHP. If no packets are shown the sender has not sent any weather packets the latest 10 day(s).
| Time | Temp. | Humidity | Pressure | Rain* | Wind** | Luminosity | Snow |
|---|---|---|---|---|---|---|---|
| 1778083662 | 17.22° C | 72% | 1017.9 hPa | 0 mm | - | 349 W/m² | - |
| 1778083358 | 17.22° C | 71% | 1017.9 hPa | 0 mm | - | 330 W/m² | - |
| 1778083057 | 17.22° C | 72% | 1017.8 hPa | 0 mm | - | 286 W/m² | - |
| 1778082754 | 17.22° C | 71% | 1017.8 hPa | 0 mm | - | 275 W/m² | - |
| 1778081626 | 17.22° C | 72% | 1017.8 hPa | 0 mm | - | 238 W/m² | - |
| 1778081323 | 17.22° C | 71% | 1017.8 hPa | 0 mm | - | 224 W/m² | - |
| 1778081021 | 16.67° C | 72% | 1017.8 hPa | 0 mm | - | 232 W/m² | - |
| 1778080719 | 16.11° C | 73% | 1017.8 hPa | 0 mm | - | 198 W/m² | - |
| 1778080415 | 15.56° C | 75% | 1017.9 hPa | 0 mm | - | 185 W/m² | - |
| 1778080113 | 15° C | 76% | 1017.7 hPa | 0 mm | - | 170 W/m² | - |
| 1778079809 | 15° C | 76% | 1017.8 hPa | 0 mm | - | 152 W/m² | - |
| 1778079506 | 14.44° C | 79% | 1017.7 hPa | 0 mm | - | 156 W/m² | - |
| 1778079202 | 14.44° C | 78% | 1017.7 hPa | 0 mm | - | 138 W/m² | - |
| 1778078900 | 13.89° C | 79% | 1017.7 hPa | 0 mm | - | 128 W/m² | - |
| 1778078596 | 13.89° C | 80% | 1017.8 hPa | 0 mm | - | 116 W/m² | - |
| 1778078295 | 13.33° C | 82% | 1017.8 hPa | 0 mm | - | 107 W/m² | - |
| 1778077992 | 13.33° C | 83% | 1017.6 hPa | 0 mm | - | 101 W/m² | - |
| 1778077690 | 12.78° C | 83% | 1017.6 hPa | 0 mm | - | 86 W/m² | - |
| 1778077387 | 12.78° C | 83% | 1017.7 hPa | 0 mm | - | 78 W/m² | - |
| 1778077086 | 12.78° C | 84% | 1017.5 hPa | 0 mm | - | 69 W/m² | - |
| 1778076783 | 12.22° C | 84% | 1017.6 hPa | 0 mm | - | 62 W/m² | - |
| 1778076481 | 12.22° C | 85% | 1017.5 hPa | 0 mm | - | 56 W/m² | - |
| 1778076178 | 11.67° C | 85% | 1017.3 hPa | 0 mm | - | 50 W/m² | - |
| 1778075875 | 11.67° C | 86% | 1017.6 hPa | 0 mm | - | 45 W/m² | - |
| 1778075571 | 11.67° C | 86% | 1017.5 hPa | 0 mm | - | 39 W/m² | - |
* Rain latest hour (hover to see other rain measurements)
** Current wind speed in m/s (hover to see current wind gust speed)